Home > Weather > Aqtobe > Past weeks

Flag for Kazakhstan Weather for the Past 2 Weeks in Aqtobe, Kazakhstan

Now
32 °F

Overcast.


Feels Like: 24 °F
Forecast: 25 / 32 °F
Wind: 10 mph from East

Location: Aktjubinsk

Current Time: Feb 6, 2016 at 9:13:23 PM

Latest Report: Feb 6, 2016 at 8:30 PM


Visibility: 6 mi

Pressure: 29.71 "Hg

Humidity: 93%

Dew point: 30 °F

Location of AqtobeLocation

Historic Weather in Aqtobe — Graph

°F

Aqtobe Temperature Yesterday

Maximum temperature yesterday: 36 °F (at 10:00 AM)
Minimum temperature yesterday: 32 °F (at 12:00 AM)
Average temperature yesterday: 35 °F

High & Low Weather Summary for the Past Weeks

 TemperatureHumidityPressure
High36 °F (Feb 5, 10:00 AM)100% (Jan 31, 10:00 PM)30.63 "Hg (Jan 31, 10:00 PM)
Low-20 °F (Jan 29, 2:30 AM)62% (Jan 23, 1:00 PM)29.71 "Hg (Feb 4, 7:00 AM)
Average17 °F89%30.08 "Hg
* Reported Jan 22 8:00 PM — Feb 6 8:00 PM, Aqtobe, Weather by CustomWeather, © 2016

Note: Actual official high and low records may vary slightly from our data, if they occured in-between our weather recording intervals... More about our weather records

Advertising

Aqtobe Weather History for the Previous 24 Hours

 ConditionsComfort  
Time TempWeatherWind HumidityBarometerVisibility
8:00 PM
Sat, Feb 6
32 °FOvercast.13 mph93%29.71 "Hg5 mi
7:30 PM32 °FMostly cloudy.15 mph93%29.71 "Hg5 mi
7:00 PM32 °FClear.13 mph93%29.71 "Hg10 mi
6:30 PM34 °FClear.8 mph93%29.74 "Hg10 mi
6:00 PM34 °FSunny.10 mph87%29.74 "Hg10 mi
5:30 PM34 °FSunny.10 mph87%29.74 "Hg10 mi
5:00 PM34 °FSunny.13 mph93%29.77 "Hg10 mi
4:30 PM36 °FSunny.6 mph87%29.77 "Hg10 mi
4:00 PM36 °FSunny.8 mph87%29.80 "Hg10 mi
3:30 PM36 °FSunny.6 mph87%29.80 "Hg10 mi
3:00 PM36 °FSunny.6 mph87%29.83 "Hg10 mi
2:30 PM36 °FSunny.6 mph87%29.83 "Hg10 mi
2:00 PM36 °FSunny.6 mph87%29.86 "Hg10 mi
1:30 PM36 °FSunny.6 mph87%29.86 "Hg10 mi
1:00 PM36 °FSunny.8 mph87%29.86 "Hg10 mi
12:30 PM34 °FSunny.6 mph93%29.86 "Hg10 mi
12:00 PM34 °FOvercast.6 mph93%29.89 "HgN/A
11:30 AM34 °FMostly cloudy.8 mph93%29.89 "HgN/A
11:00 AM34 °FPartly sunny.8 mph93%29.89 "HgN/A
10:30 AM32 °FLow clouds.8 mph100%29.92 "HgN/A
10:00 AM32 °FLow clouds.6 mph100%29.89 "HgN/A
9:00 AM32 °FLow clouds.8 mph93%29.89 "HgN/A
8:30 AM32 °FLow clouds.3 mph93%29.89 "HgN/A
7:30 AM32 °FMostly cloudy.3 mph93%29.92 "HgN/A
7:00 AM32 °FMostly cloudy.3 mph93%29.92 "HgN/A
6:00 AM32 °FMostly cloudy.3 mph93%29.92 "HgN/A
5:30 AM32 °FMostly cloudy.3 mph100%29.92 "HgN/A
5:00 AM34 °FOvercast.8 mph93%29.92 "HgN/A
4:30 AM34 °FOvercast.6 mph93%29.95 "HgN/A
4:00 AM34 °FClear.8 mph93%29.95 "Hg10 mi
3:30 AM34 °FClear.6 mph93%29.95 "Hg10 mi
3:00 AM34 °FPassing clouds.3 mph93%29.95 "HgN/A
2:30 AM34 °FPassing clouds.6 mph93%29.95 "HgN/A
2:00 AM34 °FClear.10 mph93%29.95 "Hg10 mi
1:30 AM36 °FClear.13 mph87%29.95 "Hg10 mi
1:00 AM34 °FClear.13 mph93%29.95 "Hg10 mi
12:30 AM34 °FClear.20 mph93%29.95 "Hg10 mi
12:00 AM36 °FClear.22 mph87%29.92 "Hg10 mi
11:30 PM
Fri, Feb 5
36 °FClear.24 mph87%29.95 "Hg10 mi
11:00 PM36 °FClear.22 mph87%29.95 "Hg10 mi
10:30 PM36 °FClear.22 mph87%29.95 "Hg10 mi
10:00 PM36 °FClear.20 mph87%29.95 "Hg10 mi
9:30 PM36 °FClear.20 mph87%29.95 "Hg10 mi
9:00 PM36 °FClear.20 mph87%29.95 "Hg10 mi
Weather by CustomWeather, © 2016

See weather overviewHow to use our weather pages